FloripaSat 1
1 44885U 19093G   25188.79188445  .00004752  00000-0  39942-3 0  9999
2 44885  97.8171 276.4521 0012777 109.9684 250.2915 14.98715696300971
RS-44
1 44909U 19096E   25188.54250148  .00000028  00000-0  72233-4 0  9995
2 44909  82.5195 208.6999 0216510 230.0055 128.1863 12.79741632258265
UPMSat 2
1 46276U 20061E   25188.72168904  .00066481  00000-0  50093-3 0  9990
2 46276  97.2422 264.1207 0002162 147.5449 212.5948 15.72313618269881
SALSAT
1 46495U 20068K   25188.86941829  .00005298  00000-0  22771-3 0  9991
2 46495  97.8610 168.2127 0012928  68.5481 291.7132 15.23059370262833
CubeSX-Sirius-HSE
1 47951U 21022V   25157.62701764  .07883385  25648-5  89537-3 0  9993
2 47951  97.4004  72.1904 0010275 223.9924 136.0557 16.36879307233400
CubeSX-HSE
1 47952U 21022W   25157.69972699  .06655353  25454-5  93288-3 0  9992
2 47952  97.3980  72.5414 0010307 219.3637 140.6911 16.34906352233436
GRBAlpha
1 47959U 21022AD  25160.45426279  .07940347  25506-5  90589-3 0  9995
2 47959  97.3899  75.6235 0011032 227.2558 132.7812 16.36806138232695
TUBIN
1 48900U 21059X   25188.85397082  .00034242  00000-0  38321-3 0  9999
2 48900  97.6753   0.4277 0004223 129.6619 230.5011 15.62646304224451
LEDSAT
1 49069U 21073D   25188.74161745  .00062481  00000-0  65326-3 0  9996
2 49069  97.3880 271.5274 0006883 327.4010  32.6824 15.64243425215835
CUTE
1 49263U 21088D   25188.10017530  .00012901  00000-0  24963-3 0  9994
2 49263  97.4505 265.1693 0009391 136.4408 223.7585 15.47834244208684
TeikyoSat 4
1 49396U 21102B   25188.55862154  .00001336  00000-0  91287-4 0  9991
2 49396  97.4088 225.9761 0013592  43.7526 316.4776 15.07738929200768
Z-Sat
1 49399U 21102E   25188.89656758  .00002657  00000-0  14685-3 0  9995
2 49399  97.3786 229.5739 0018110  11.7898 348.3755 15.14607788201261
KOSEN 1
1 49402U 21102H   25188.83825509  .00004452  00000-0  20566-3 0  9996
2 49402  97.3692 233.1479 0015008 346.4571  13.6260 15.20601568201588
HO-113
1 50466U 21131B   25188.88595811  .00000353  00000-0  12385-3 0  9991
2 50466  98.5108 278.1010 0005150  62.0081 298.1628 14.40841138185522
Foresail-1
1 52766U 22057AL  25176.64799660  .13857605  27391-5  25307-3 0  9992
2 52766  97.5832 331.2310 0012137 233.7199 258.4922 16.46795272172486
SNUGLITE 2
1 52899U 22065F   25188.45841486  .00000775  00000-0  15957-3 0  9991
2 52899  98.1720 330.1659 0008210  34.9967 325.1773 14.63265094160564
UmKA 1 (RS40S)
1 57172U 23091G   25188.80047438  .00003607  00000-0  19312-3 0  9990
2 57172  97.5569 244.0374 0013094 232.3969 127.6075 15.15603756111752
CubeBel-2 (EU11S)
1 57175U 23091K   25188.88660698  .00006457  00000-0  30482-3 0  9997
2 57175  97.5569 245.4446 0010751 238.2795 121.7392 15.19746050111856
VERONIKA
1 58261U 23174F   25188.80291635  .00203368  00000-0  11157-2 0  9996
2 58261  97.4099 276.8473 0005686 251.3679 108.6971 15.79200375 93123
ENSO
1 58470U 23185J   25188.84694764  .00044147  00000-0  57532-3 0  9990
2 58470  97.3726 264.9267 0004689 337.2653  22.8395 15.58595011 89435
EIRSAT-1
1 58472U 23185L   25188.87387558  .00122430  00000-0  87146-3 0  9991
2 58472  97.3661 267.4092 0002802 296.8593  63.2384 15.73480315 89600
SONATE-2
1 59112U 24043Q   25188.83042664  .00012190  00000-0  34355-3 0  9994
2 59112  97.5166 320.5947 0010862  20.6092 339.5588 15.36523294 74675
MO-122
1 60209U 24125G   25188.57769789  .00014018  00000-0  38773-3 0  9998
2 60209  97.2771  39.8943 0019254  41.8516 318.4197 15.36934241 56253
GRBBeta
1 60237U 24128C   25188.61641313  .00003087  00000-0  23791-3 0  9997
2 60237  61.9925 341.7874 0053944  63.6115 297.0499 15.02836941 54416
Curium One
1 60242U 24128H   25188.60540097  .00005364  00000-0  37438-3 0  9992
2 60242  61.9822 339.6980 0053820  59.9137 300.7276 15.05458660 54457
ROBUSTA-3A
1 60243U 24128J   25188.61684518  .00005549  00000-0  39218-3 0  9994
2 60243  61.9894 340.5807 0052758  57.6548 302.9636 15.04984177 54445
CatSat
1 60246U 24125J   25188.54159191  .00007737  00000-0  25535-3 0  9998
2 60246  97.2570  38.7506 0041716 357.0845   3.0147 15.30835890 54264
HYPERVIEW-1G (RS66S)
1 61772U 24199AP  25188.81993563  .00015977  00000-0  44976-3 0  9998
2 61772  97.3504  57.6326 0015308  92.7240 267.5757 15.36428761 81295
AO-123
1 61781U 24199AY  25188.86091768  .00005055  00000-0  18324-3 0  9993
2 61781  97.3520  56.2490 0017559  97.2386 263.0851 15.28666141 81205
ZIMSAT 2
1 61783U 24199BA  25188.83529776  .00029310  00000-0  67670-3 0  9995
2 61783  97.3479  58.4894 0014946  90.2862 270.0098 15.42378095 84502
HADES-R (SO-124)
1 62690U 25009CK  25188.47160367  .00028601  00000-0  96208-3 0  9992
2 62690  97.4087 269.1979 0001810  22.9024 337.2297 15.30759212 26413
HYDRA-T
1 62692U 25009CM  25188.19064888  .00036160  00000-0  12039-2 0  9992
2 62692  97.4092 268.9625 0001420  22.8732 337.2572 15.31041918 26377
JINJUSat 1B
1 63210U 25052A   25188.68886336  .00008042  00000-0  36413-3 0  9992
2 63210  97.4394  82.4615 0003235 196.7449 163.3681 15.21140870 17521
NUSHSAT 1
1 63211U 25052B   25188.67908733  .00008735  00000-0  39198-3 0  9990
2 63211  97.4384  82.4601 0003108 202.9840 157.1257 15.21422997 17523
TEVEL2-4
1 63213U 25052D   25188.63258142  .00008887  00000-0  40249-3 0  9997
2 63213  97.4302  82.2472 0001767 216.8306 143.2808 15.21104473 17512
TEVEL2-5
1 63214U 25052E   25188.69933211  .00008800  00000-0  39882-3 0  9997
2 63214  97.4300  82.3109 0001730 219.0027 141.1084 15.21082390 17521
TEVEL2-6
1 63215U 25052F   25188.70221353  .00008970  00000-0  40692-3 0  9996
2 63215  97.4302  82.3090 0001771 220.9898 139.1205 15.21042002 17523
TEVEL2-1
1 63217U 25052H   25188.65155460  .00008856  00000-0  40446-3 0  9997
2 63217  97.4276  82.1875 0001710 251.9761 108.1288 15.20815607 17514
TEVEL2-2
1 63218U 25052J   25187.92807724  .00008866  00000-0  40508-3 0  9994
2 63218  97.4278  81.4748 0001696 259.5200 100.5844 15.20803146 17400
TEVEL2-3
1 63219U 25052K   25187.66511462  .00009504  00000-0  43410-3 0  9992
2 63219  97.4275  81.2144 0001685 262.5428  97.5616 15.20792666 17361
TEVEL2-8
1 63237U 25052AD  25188.60815711  .00008221  00000-0  38913-3 0  9998
2 63237  97.4340  82.0357 0006032 278.4768  81.5783 15.19588849 17499
TEVEL2-9
1 63238U 25052AE  25188.67750094  .00007786  00000-0  36942-3 0  9993
2 63238  97.4341  82.0986 0006141 279.3408  80.7132 15.19523839 17500
TEVEL2-7
1 63239U 25052AF  25188.68007930  .00007770  00000-0  36905-3 0  9991
2 63239  97.4340  82.0938 0006181 279.3004  80.7531 15.19491002 17502
HYDRA-W
1 63490U 25052BL  25188.58491170  .00021030  00000-0  85772-3 0  9993
2 63490  97.4289  82.4486 0009175 273.0974  86.9213 15.24422735 17528
HADES-ICM (SO-125)
1 63492U 25052BN  25188.67397407  .00018433  00000-0  76350-3 0  9998
2 63492  97.4298  82.4911 0009557 277.8182  82.1970 15.23926240 17538
